Weather History for Montpelier, VT

Change the Weather History Date:

Friday, March 23, 2012

  Actual Average Record
Temperature  
Mean Temperature 52 °F 32 °F  
Max Temperature 63 °F 42 °F 63 °F (1953)
Min Temperature 41 °F 22 °F -1 °F (2004)
Degree Days  
Heating Degree Days 13 33  
Month to date heating degree days 562 867  
Since 1 July heating degree days 5627 6775  
Cooling Degree Days 0 0  
Month to date cooling degree days 0 0  
Year to date cooling degree days 0 0  
Growing Degree Days 4 (Base 50)    
Moisture  
Dew Point 32 °F    
Average Humidity 53    
Maximum Humidity 86    
Minimum Humidity 20    
Precipitation  
Precipitation 0.00 in 0.08 in 0.62 in (1968)
Month to date precipitation 0.95 1.74  
Year to date precipitation 3.97 6.23  
Sea Level Pressure  
Sea Level Pressure 30.17 in    
Wind  
Wind Speed 6 mph (NNW)    
Max Wind Speed 20 mph    
Max Gust Speed 28 mph    
Visibility 10 miles    
Events      
T = Trace of Precipitation, MM = Missing Value Source: NWS Daily Summary

Daily Weather History Graph

Daily Weather History Graph

Search for Another Location

Airport:

Trip Planner

Search our weather history database for the weather conditions in past years. The results will help you decide how hot, cold, wet, or windy it might be!

Date:

Astronomy

Mar. 23, 2012 Rise Set
Actual Time 6:47 AM EDT 7:06 PM EDT
Civil Twilight 6:18 AM EDT 7:35 PM EDT
Nautical Twilight 5:44 AM EDT 8:10 PM EDT
Astronomical Twilight 5:09 AM EDT 8:45 PM EDT
Moon 6:50 AM EDT (3/23) 8:31 PM EDT (3/23)
Length of Visible Light 13h 17m
Length of Day
12h 19m
New Moon, 1% of the Moon is Illuminated
Mar 23
New Moon
Mar 30
First Quarter
Apr 6
Full
Apr 13
Last Quarter
Apr 21
New

Hourly Weather History & Observations

Time (EDT) Temp. Windchill Dew Point Humidity Pressure Visibility Wind Dir Wind Speed Gust Speed Precip Events Conditions
12:51 AM 55.9 °F - 46.9 °F 72% 30.14 in 10.0 mi NW 3.5 mph - N/A   Scattered Clouds
1:51 AM 55.0 °F - 46.0 °F 72% 30.14 in 10.0 mi NNW 5.8 mph - N/A   Partly Cloudy
2:51 AM 50.0 °F - 44.1 °F 80% 30.15 in 10.0 mi Calm Calm - N/A   Mostly Cloudy
3:51 AM 52.0 °F - 44.1 °F 74% 30.16 in 10.0 mi Calm Calm - N/A   Mostly Cloudy
4:51 AM 51.1 °F - 44.1 °F 77% 30.17 in 10.0 mi Calm Calm - N/A   Clear
5:51 AM 46.9 °F - 42.1 °F 83% 30.19 in 10.0 mi Calm Calm - N/A   Clear
6:51 AM 46.0 °F - 39.9 °F 79% 30.21 in 10.0 mi Calm Calm - N/A   Clear
7:51 AM 48.9 °F - 42.1 °F 77% 30.22 in 10.0 mi ENE 3.5 mph - N/A   Clear
8:51 AM 50.0 °F - 43.0 °F 77% 30.24 in 10.0 mi ENE 3.5 mph - N/A   Clear
9:51 AM 54.0 °F - 37.9 °F 55% 30.22 in 10.0 mi Calm Calm - N/A   Clear
10:51 AM 59.0 °F - 34.0 °F 39% 30.22 in 10.0 mi North 8.1 mph - N/A   Clear
11:51 AM 60.1 °F - 26.1 °F 27% 30.22 in 10.0 mi NW 13.8 mph 23.0 mph N/A   Clear
12:51 PM 62.1 °F - 28.0 °F 28% 30.19 in 10.0 mi NNW 10.4 mph 20.7 mph N/A   Clear
1:51 PM 62.1 °F - 24.1 °F 23% 30.17 in 10.0 mi NNW 11.5 mph 25.3 mph N/A   Clear
2:51 PM 61.0 °F - 19.0 °F 20% 30.16 in 10.0 mi NW 15.0 mph 24.2 mph N/A   Clear
3:51 PM 60.1 °F - 19.9 °F 21% 30.14 in 10.0 mi NNW 12.7 mph 21.9 mph N/A   Clear
4:51 PM 60.1 °F - 21.9 °F 23% 30.14 in 10.0 mi NNW 12.7 mph 21.9 mph N/A   Clear
5:51 PM 57.0 °F - 26.1 °F 30% 30.14 in 10.0 mi North 12.7 mph 18.4 mph N/A   Clear
6:51 PM 55.0 °F - 27.0 °F 34% 30.15 in 10.0 mi NW 9.2 mph - N/A   Clear
7:51 PM 51.8 °F - 23.0 °F 33% 30.15 in 10.0 mi NW 4.6 mph - N/A   Clear
8:51 PM 51.1 °F - 21.0 °F 31% 30.16 in 10.0 mi Calm Calm - N/A   Clear
9:51 PM 46.9 °F - 23.0 °F 39% 30.16 in 10.0 mi NNW 5.8 mph - N/A   Clear
10:51 PM 46.0 °F 44.8 °F 19.0 °F 34% 30.16 in 10.0 mi NNW 3.5 mph - N/A   Clear
11:51 PM 45.0 °F 43.5 °F 18.0 °F 34% 30.17 in 10.0 mi Variable 3.5 mph - N/A   Clear